Location: Dogaro
(44.8000°N, 11.1833°E)
Time: 23:07:54
(UTC+00:00)

Daily predictions for brighter satellites

Satellite Brightness Start Highest point End
(mag) Time Altitude Azimuth Time Altitude Azimuth Time Altitude Azimuth
Meteor 1-20 Rocket 4.4 15:56:14 10° N 16:01:59 55° ENE 16:07:41 10° SSE
COSMOS 2455 3.5 15:57:02 10° S 16:02:28 37° ESE 16:07:57 10° NE
Cosmos 2034 Rocket 4.0 15:56:47 10° S 16:02:53 72° E 16:09:03 10° NNE
SMAP 3.5 15:59:29 10° SE 16:03:47 39° ENE 16:08:07 10° N
Cosmos 990 Rocket 4.0 15:59:51 10° NNW 16:05:05 82° ENE 16:10:15 10° SSE
Lacrosse 5 rocket 2.9 16:03:02 10° NNW 16:05:45 18° NNE 16:08:33 10° ENE
ATLAS CENTAUR R/B 3.4 15:55:03 10° SW 16:07:01 77° SE 16:11:42 10° NE
COSMO-SKYMED 1 4.5 16:06:11 10° ENE 16:07:57 12° E 16:09:43 10° ESE
Cosmos 1656 4.2 16:05:58 10° NNW 16:11:28 65° WSW 16:17:00 10° SSE
USA 234 3.4 16:05:10 10° ESE 16:11:33 58° NNE 16:17:55 10° NW
Cosmos 1633 Rocket 4.5 16:10:58 10° NNE 16:13:53 17° ENE 16:16:49 10° ESE
SL-24 R/B - RUBIN 2 4.1 16:10:43 10° NNW 16:14:59 37° NE 16:19:02 10° ESE
NOSS 3-1 (A) 4.2 16:08:16 10° NW 16:15:52 88° SW 16:24:44 10° SE
NOAA 6 4.2 16:10:57 10° SE 16:15:55 53° ENE 16:20:55 10° N
ISS -3.2 16:13:06 10° NW 16:16:21 41° NNE 16:19:36 10° E
NOSS 2-2 (E) 4.5 16:15:16 10° NNW 16:20:30 61° NE 16:27:51 10° SE
Cosmos 1634 Rocket 4.3 16:16:42 10° SSE 16:22:43 49° E 16:28:46 10° NNE
Cosmos 1666 4.0 16:20:21 10° NNE 16:23:03 19° ENE 16:25:45 10° ESE
Cosmos 1151 Rocket 4.2 16:19:53 10° SE 16:23:16 23° E 16:26:42 10° NE
PSLV R/B 4.3 16:22:37 10° SE 16:25:58 33° ENE 16:29:22 10° N
Cosmos 2026 Rocket 4.0 16:21:24 10° N 16:27:27 57° ENE 16:33:23 10° SSE
CZ-4B R/B 3.2 16:24:35 10° S 16:28:37 70° WSW 16:32:28 10° NNW
Cosmos 1743 Rocket 3.7 16:25:13 10° N 16:29:33 79° W 16:33:52 10° S
USA 305 4.4 16:26:20 10° NW 16:29:46 23° N 16:32:40 13° NE
Cosmos 1933 3.3 16:25:47 10° S 16:29:49 75° E 16:33:51 10° NNE
Cosmos 2322 Rocket 3.8 16:26:52 10° N 16:29:59 15° NE 16:32:01 12° ENE
Cosmos 2195 Rocket 4.4 16:25:05 10° N 16:31:16 73° E 16:37:28 10° SSE
Cosmos 1697 Rocket 2.7 16:25:50 10° NNW 16:31:29 88° WSW 16:37:06 10° SSE
Cosmos 858 Rocket 4.5 16:27:33 10° NNW 16:32:51 71° ENE 16:38:06 10° SSE
Okean O Rocket 2.7 16:32:09 10° ESE 16:35:37 23° ENE 16:39:07 10° NNE
SL-08 R/B 4.3 16:31:18 10° N 16:35:49 47° WNW 16:40:15 10° SW
Cosmos 1980 Rocket 2.3 16:30:42 10° NNW 16:36:16 55° ENE 16:41:47 10° SE
FengYun 1-2 T 4.4 16:31:28 10° SSE 16:37:04 83° WSW 16:42:39 10° NNW
Cosmos 540 Rocket 3.4 16:32:20 10° SSW 16:37:25 82° ESE 16:42:34 10° NNE
Cosmos 2369 3.7 16:34:54 10° NNW 16:40:40 74° ENE 16:46:22 10° SSE
Cosmos 1666 Rocket 4.1 16:36:44 10° N 16:40:53 37° ENE 16:44:57 10° SE
MOS 1-B 4.5 16:36:01 10° SE 16:41:35 52° ENE 16:47:11 10° N
Cosmos 1809 Rocket 4.4 16:38:48 10° N 16:44:56 85° E 16:51:01 10° S
Cosmos 1812 3.1 16:41:33 10° SSE 16:45:09 40° E 16:48:47 10° NNE
SL-16 R/B 3.3 16:44:24 10° N 16:48:53 23° NE 16:51:23 18° E
Meteor 1-14 Rocket 4.4 16:43:19 10° N 16:49:01 52° ENE 16:54:48 10° SSE
CORIOLIS 4.2 16:43:41 10° SSE 16:49:05 89° W 16:54:34 10° NNW
Meteor 2-21 Rocket 4.4 16:44:42 10° N 16:50:45 60° ENE 16:56:43 10° SSE
Cosmos 1570 Rocket 4.4 16:45:50 10° S 16:50:45 43° ESE 16:55:00 14° NE
Cosmos 2082 Rocket 2.2 16:45:41 10° SSW 16:51:20 70° ESE 16:56:54 10° NNE
Cosmos 1814 Rocket 4.2 16:47:39 10° S 16:52:42 52° ESE 16:57:16 13° NNE
SKYMED 2 4.1 16:53:03 14° NNE 16:56:25 37° E 17:00:27 10° SSE
CZ-4B DEB 4.3 16:56:26 10° SSE 17:01:57 82° WSW 17:07:29 10° NNW
USA 306 4.2 16:58:42 10° NW 17:02:15 25° N 17:03:34 21° NE
MOS 1-B Rocket 4.1 16:56:18 10° NNE 17:02:16 66° ESE 17:09:04 10° S
Cosmos 1939 Rocket 4.2 16:59:52 10° S 17:03:48 44° W 17:07:43 10° NNW
Cosmos 2278 3.6 16:58:38 10° NNW 17:04:20 65° ENE 17:09:58 10° SE
Sich 1 3.4 17:00:39 10° NNW 17:04:55 67° W 17:09:12 10° S
Cosmos 1818 3.9 17:00:06 10° NNW 17:05:20 43° NE 17:08:58 19° ESE
ARGOS 3.3 17:00:10 10° SE 17:05:21 48° ENE 17:10:32 10° N
CZ-2C R/B 3.6 17:04:02 10° S 17:05:57 13° SSE 17:07:51 10° SE
Cosmos 1833 Rocket 3.8 17:06:07 10° SW 17:11:25 41° WNW 17:16:45 10° NNE
GEOS 3 Rocket 4.4 17:13:45 27° ENE 17:15:03 31° NE 17:19:34 10° NNW
COSMOS 2406 4.0 17:09:42 10° SW 17:15:16 50° WNW 17:20:51 10° NNE
deb Chang Zheng 4 3.4 17:12:27 10° SSE 17:16:43 66° ENE 17:21:00 10° N
USA 267 3.7 17:16:33 19° NE 17:21:11 54° NNW 17:27:30 10° WSW
USA 307 4.1 17:17:54 10° NW 17:21:33 27° NNE 17:21:59 26° NNE
Cosmos 1782 4.1 17:18:43 10° SSW 17:22:29 40° WNW 17:26:17 10° N
Cosmos 2208 Rocket 4.0 17:20:40 10° S 17:26:01 72° ESE 17:29:27 23° NNE
Cosmos 1515 Rocket 3.9 17:22:51 10° SSE 17:26:51 41° E 17:26:51 41° E
CZ-2C R/B 2.4 17:22:06 10° NNE 17:27:19 78° ESE 17:32:29 10° S
SL-08 RB Rocket 3.8 17:23:15 10° SSE 17:27:45 51° ENE 17:32:14 10° N
CZ-2D R/B 4.3 17:24:32 10° S 17:28:14 47° W 17:31:57 10° NNW
Meteor 2-6 Rocket 4.1 17:25:26 10° S 17:31:12 79° E 17:36:49 10° NNE
Cosmos 2150 Rocket 4.1 17:26:21 10° NNW 17:31:22 49° ENE 17:33:12 34° ESE
H-2A R/B 2.5 17:26:16 10° S 17:31:23 63° W 17:36:24 10° NNW
CZ-4C R/B 3.0 17:24:52 10° NW 17:32:13 89° SW 17:40:46 10° SE
CZ-4B R/B 3.2 17:27:19 10° SSE 17:32:45 83° WSW 17:38:07 10° NNW
YAOGAN 3 4.5 17:33:24 10° SSE 17:37:46 88° WSW 17:42:09 10° NNW
USA 32 4.3 17:35:48 10° SSE 17:40:18 45° ESE 17:40:18 45° ESE
USA 308 4.1 17:40:28 10° NW 17:43:39 29° N 17:43:39 29° N
COSMO-SKYMED 1 2.8 17:41:39 20° N 17:44:34 68° WNW 17:48:52 10° SSW
Cosmos 921 Rocket 2.7 17:41:06 10° SSW 17:45:16 78° ESE 17:45:22 77° E
Lacrosse 5 rocket 1.7 17:41:35 10° NW 17:44:49 50° N 17:44:49 50° N
Cosmos 1125 Rocket 3.4 17:41:23 10° NNW 17:46:37 61° ENE 17:47:31 52° ESE
COSMOS 2455 3.8 17:42:38 10° WSW 17:48:20 43° NW 17:52:28 18° NNE
Cosmos 2279 Rocket 4.5 17:43:28 10° SSW 17:49:34 60° W 17:55:43 10° N
Meteor 2-15 Rocket 4.3 17:45:27 10° S 17:51:32 72° E 17:55:53 20° NNE
Cosmos 1633 Rocket 4.0 17:47:45 10° NNW 17:51:57 47° W 17:56:09 10° SSW
ATLAS 2AS CENTAUR R/B 4.3 17:47:52 10° NNW 17:52:53 19° N 17:54:01 18° NNE
ISS -2.4 17:49:59 10° WNW 17:53:03 38° SW 17:53:03 38° SW
Cosmos 2360 Rocket 3.5 17:49:18 10° N 17:52:12 24° NNE 17:52:12 24° NNE
USA 234 4.0 17:48:16 10° SSE 17:54:36 52° SW 18:00:58 10° WNW
Cosmos 2266 Rocket 3.9 17:48:30 10° N 17:54:56 83° E 18:01:22 10° S
Cosmos 44 Rocket 3.1 17:50:18 10° NW 17:55:15 87° SW 17:56:03 62° SSE
Meteor 1-10 Rocket 4.2 17:51:05 10° S 17:56:53 88° WNW 18:00:37 23° N
Meteor 1-11 Rocket 3.6 17:53:05 10° N 17:58:45 78° E 18:04:30 10° SSE
Okean O Rocket 3.0 18:07:34 10° SSW 18:11:44 39° W 18:15:57 10° NNW
Feng Yun 1-1 Rocket 4.5 18:06:52 10° S 18:12:47 74° WSW 18:18:39 10° NNW
Cosmos 2322 Rocket 2.5 18:09:25 10° NNW 18:13:54 53° N 18:13:54 53° N
Cosmos 1980 Rocket 4.4 18:15:28 10° NW 18:19:51 24° WSW 18:24:12 10° SSW
SL-16 R/B 2.4 18:27:52 10° NNW 18:33:21 66° W 18:33:21 66° W
Cosmos 2082 Rocket 4.2 18:31:36 10° W 18:35:58 22° NW 18:38:46 16° N
ATLAS CENTAUR R/B 4.3 18:33:42 10° WNW 18:37:45 19° NW 18:37:45 19° NW
CZ-2C R/B 4.2 18:41:40 10° SW 18:42:01 11° SW 18:42:01 11° SW
Cosmos 2333 Rocket 4.4 18:41:43 10° NNW 18:42:44 15° N 18:42:44 15° N
USA 267 4.4 19:03:54 31° NNW 19:03:54 31° NNW 19:09:00 10° WNW
